www.pogodaiklimat.ru

Погода и климат >> Архив погоды >> Россия >> Сахалинская область >> Курильск


АРХИВ ПОГОДЫ в Курильске

Время (UTC), дата Ветер
(напр.,м/с)
 
Видим.   Явления Облачность Т
(С)
Тd
(С)
f
(%)
Тe
(С)
Тes
(С)
Комфортность P
(гПа)
Po
(гПа)
Тmin
(С)
Tmax
(С)
R
(мм)
R24
(мм)
S
(см)
03 9.06 штиль 0
{4}
10 км 10/10 300 м
[Sc]
+10.1 +8.9 92 +9 +9 1012.7 1009.3
06 9.06 ЮВ 1-2
{5}
2000 м морось 10/10 300 м
[St]
+8.8 +8.5 98 +8 +8 1014.1 1010.7
09 9.06 В 2-3
{5}
10 км {морось} 10/10 300 м
[Sc]
+7.6 +7.2 97 +5 +5 1014.1 1010.7 +11.2 0.5
12 9.06 В 1-2
{5}
20 км {морось} 10/10 300 м
[Sc]
+7.2 +7.1 99 +6 +6 1015.4 1012.0
15 9.06 штиль 0
{3}
500 м слаб. морось {туман} туман ?/? +7.3 +7.2 99 +6 +6 1013.9 1010.4
18 9.06 штиль 0
{4}
20 км в посл. час морось {туман} 10/10 300 м
[Sc]
+6.8 +6.7 99 +6 +6 1015.4 1012.0
21 9.06 штиль 0-1
{4}
4000 м слаб. морось 10/10 300 м
[St]
+6.9 +6.8 99 +6 +6 1015.1 1011.6 +6.8 0.4
00 10.06 СЗ 1-2
{4}
10 км {морось} 10/10 300 м
[St]
+8.4 +7.3 93 +8 +8 1015.4 1012.0
03 10.06 З 2-3
{4}
10 км 10/10 300 м
[St]
+9.2 +7.2 87 +7 +7 1014.3 1010.9
06 10.06 СЗ 2-4
{5}
20 км 10/10 600 м
[Sc]
+9.3 +5.8 79 +8 +8 1015.4 1012.0
09 10.06 З 1-2
{4}
20 км 9/9 600 м
[Sc]
+8.5 +5.8 83 +8 +8 1015.4 1012.0 +10.3
12 10.06 штиль 0
{2}
20 км 10/10 600 м
[Sc]
+8.2 +5.8 85 +7 +7 1015.4 1012.0
15 10.06 В 1-2
{3}
20 км 10/10 600 м
[Sc]
+7.4 +6.7 95 +6 +6 1014.3 1010.8
18 10.06 штиль 0
{3}
20 км 10/10 600 м
[Sc]
+7.9 +6.8 93 +7 +7 1015.4 1012.0
21 10.06 ЮЗ 1-1
{3}
10 км 10/10 600 м
[Sc]
+10.4 +7.5 82 +10 +10 1015.1 1011.6 +7.4
00 11.06 ЮЗ 2-3
{5}
20 км 10/4 600 м
[Sc Ac lent]
+12.9 +7.8 71 +12 +12 1016.7 1013.3
03 11.06 ЮВ 2-3
{5}
20 км 10/6 600 м
[Sc Ac lent]
+13.3 +7.4 67 +13 +14 1015.2 1011.7
06 11.06 СЗ 2-2
{4}
20 км 10/4 600 м
[Sc Ac lent]
+12.8 +7.5 70 +12 +12 1016.7 1013.3
09 11.06 В 2-3
{6}
20 км 10/3 600 м
[Sc Ac lent]
+12.4 +8.1 75 +12 +12 1016.7 1013.3 +14.1
12 11.06 В 2-3
{4}
20 км 10/3 600 м
[Sc Ac trans Ci sp]
+9.5 +7.4 87 +8 +8 1018.1 1014.7
15 11.06 ЮВ 3-4
{6}
20 км 10/3 600 м
[Sc Ac As]
+10.0 +6.9 81 +8 +8 1016.1 1012.6
18 11.06 ЮВ 3-5
{8}
20 км 10/0
[Ac lent]
+10.3 +5.9 74 +8 +8 1016.7 1013.3
21 11.06 ЮВ 5-8
{10}
20 км 10/0
[Ac lent]
+10.8 +5.0 67 +8 +9 1015.7 1012.2 +8.9
00 12.06 СВ 3-7
{12}
20 км 10/3 600 м
[Sc Ac lent]
+11.1 +6.4 73 +9 +9 1016.7 1013.3
03 12.06 Ю 5-8
{12}
20 км 10/6 600 м
[Sc Ac lent]
+11.2 +6.4 72 +9 +9 1014.2 1010.8
06 12.06 В 5-7
{12}
20 км 10/6 600 м
[Sc Ac lent]
+9.9 +6.6 80 +7 +7 1014.1 1010.7
09 12.06 В 6-10
{12}
20 км 10/8 600 м
[Sc Ac lent]
+7.9 +6.8 93 +4 +4 1014.1 1010.7 +12.5
12 12.06 В 7-11
{12}
20 км 10/8 600 м
[Sc Ac lent]
+7.6 +6.4 92 +3 +3 1014.1 1010.7
15 12.06 В 5-9
{13}
20 км 10/8 600 м
[Sc Ac lent]
+7.2 +5.6 90 +3 +3 1011.6 1008.1
18 12.06 штиль 0
{4}
20 км 10/8 600 м
[Sc Ac lent]
+7.3 +5.4 88 +6 +6 1012.7 1009.3
21 12.06 В 5-9
{12}
20 км 10/8 600 м
[Sc Ac lent]
+7.8 +5.6 86 +4 +4 1011.7 1008.2 +6.9
00 13.06 В 6-8
{11}
20 км 8/3 600 м
[Sc Ac trans Ci fib]
+11.7 +5.1 64 +9 +11 1012.7 1009.3
03 13.06 В 5-7
{10}
20 км 10/4 600 м
[Sc Ac trans]
+10.8 +6.0 72 +8 +10 1012.0 1008.5
06 13.06 СВ 4-5
{10}
20 км 10/6 600 м
[Sc Ac trans]
+10.9 +5.6 70 +9 +9 1012.7 1009.3
09 13.06 В 4-5
{7}
20 км 10/10 1000 м
[Sc]
+8.5 +4.9 78 +5 +5 1014.1 1010.7 +12.2
12 13.06 В 2-4
{7}
20 км 9/0
[Ac trans]
+6.9 +4.6 85 +5 +5 1016.8 1013.3
15 13.06 В 1-2
{5}
20 км 10/0
[Ac und]
+6.6 +4.8 88 +6 +6 1015.5 1012.0
18 13.06 штиль 0
{3}
20 км 10/0
[Ac und]
+6.3 +4.8 90 +5 +5 1016.8 1013.3
21 13.06 штиль 0
{5}
20 км 10/0
[Ac und]
+8.2 +5.0 80 +7 +9 1015.8 1012.3 +6.1
00 14.06 ЮВ 4-6
{6}
10 км слаб. дождь 10/10 300 м
[Frnb Ns]
+8.6 +5.9 83 +5 +5 1016.7 1013.3
03 14.06 В 3-6
{10}
20 км {дождь} 10/4 600 м
[Sc Ac lent]
+9.5 +6.0 79 +7 +9 1015.8 1012.3
06 14.06 ЮВ 5-8
{9}
20 км {дождь} 10/6 600 м
[Sc Ac lent]
+11.7 +6.8 72 +9 +9 1016.7 1013.3
09 14.06 ЮВ 4-6
{11}
20 км 9/4 600 м
[Sc Ac trans Ci sp]
+10.7 +7.4 80 +8 +8 1016.7 1013.3 +12.5 0.4
12 14.06 В 3-5
{8}
20 км 10/10 600 м
[Sc]
+11.9 +9.6 86 +10 +10 1016.7 1013.3
15 14.06 В 2-3
{11}
20 км 10/10 300 м
[Sc]
+13.1 +10.4 84 +12 +12 1015.3 1011.9
18 14.06 Ю 5 20 км 10 баллов +13.7 +11.9 89 +12 +12 1015.4 1012.0
21 14.06 С 5-7
{11}
10 км 10/5 600 м
[Sc Ac As]
+13.4 +11.9 91 +11 +12 1015.1 1011.7 +10.6
00 15.06 Ю 10 10 км 10 баллов +16.7 +12.0 74 +15 +15 1015.3 1012.0
03 15.06 Ю 11-16
{18}
20 км 9/4 600 м
[Sc Ac lent]
+19.3 +12.3 64 +19 +19 1015.3 1011.9
06 15.06 Ю 6-8
{17}
20 км 10/3 600 м
[Sc Ac As]
+17.5 +7.8 53 +17 +17 1016.6 1013.3
09 15.06 В 2-4
{11}
20 км 10/6 600 м
[Sc Ac lent]
+14.4 +9.8 74 +14 +14 1016.7 1013.3 +19.3
12 15.06 СВ 3-4
{11}
20 км 10/4 600 м
[Sc Ac As]
+12.7 +11.1 90 +11 +11 1018.1 1014.7
15 15.06 ЮВ 4-7
{11}
20 км 10/6 600 м
[Sc Ac lent]
+12.6 +10.5 87 +11 +11 1015.0 1011.6
18 15.06 В 1-5
{10}
20 км 10/6 600 м
[Sc Ac As]
+11.7 +10.1 90 +11 +11 1015.4 1012.0
21 15.06 В 6-10
{11}
10 км слаб. дождь 10/10 600 м
[Frnb Ns]
+9.4 +9.1 98 +6 +6 1012.2 1008.8 +9.4 1

 

Местоположение метеостанции Курильск (Сахалинская область, Россия): широта 45.25 долгота 147.80 высота над уровнем моря 28 м.

В архиве по умолчанию представлена погода в Курильске за последнюю неделю. Архивные данные за месяц целиком и за предыдущие месяцы, начиная с января 2011 года, Вы можете получить, выбрав интересующий диапазон дат из раскрывающегося списка и нажав кнопку "Ввод!".


*Определитесь, кто Вы:
робот инопланетянин человек

Внимание! Время в таблицах - всемирное. Для получения местного времени необходимо прибавить поправку, которая равна 11 ч.

Смотрите также архив погоды в соседних городах и на ближайших метеорологических станциях:

Погода в Малокурильском (Сахалинская область, Россия) (172 км)
Погода в Южно-Курильске (Сахалинская область, Россия) (209 км)
Погода в Немуро (Япония) (277 км)
Погода в Абасири (Япония) (310 км)
Погода в Момбецу (Япония) (365 км)
Погода в Новиково (Сахалинская область, Россия) (371 км)
Погода в Кусиро (Япония) (372 км)
Погода в Мальково (Сахалинская область, Россия) (387 км)
Погода в Омурайсу (Япония) (388 км)
Погода в Китами Сачи (Япония) (411 км)

Пояснения к столбцам:

Ветер - указаны скорость ветра в м/с - средняя за 10 мин, порывы в срок и между сроками (в фигурных скобках) и направление, откуда дует ветер: С - северный, СВ - северо-восточный, В - восточный, ЮВ - юго-восточный, Ю - южный, ЮЗ - юго-западный, З - западный, СЗ - северо-западный.
Видимость - горизонтальная дальность видимости в метрах или километрах. При видимости от 1 до 10 км при отсутствии осадков обычно наблюдается дымка, при ухудшении видимости до 1 км и менее - туман. В сухую погоду видимость может ухудшаться дымом, пылью или мглою.
Явления - указаны атмосферные явления, наблюдавшиеся в срок или в последний час перед сроком; фигурными скобками обозначены явления, наблюдавшиеся между сроками (за 1-3 часа до срока); квадратными скобками обозначены град или гололедные отложения с указанием их диаметра в мм.
Облачность - указаны через наклонную черту общая и нижняя облачность в баллах и высота нижней границы облаков в метрах; квадратными скобками обозначены формы облаков: Ci - перистые, Cs - перисто-слоистые, Cc - перисто-кучевые, Ac - высококучевые, As - высокослоистые, Sc - слоисто-кучевые, Ns - слоисто-дождевые, Cu - кучевые, Cb - кучево-дождевые. Подробнее классификацию облаков см. в Атласе облаков (PDF).
T - Температура воздуха - температура, измеренная на высоте 2 м над землей.
Td - Температура точки росы - температура, при понижении до которой содержащийся в воздухе водяной пар достигнет насыщения.
f - Относительная влажность воздуха - влажноcть воздуха, измеренная на высоте 2 м над землей.
Te - Эффективная температура - температура, которую ощущает одетый по сезону человек в тени. Характеристика душности погоды. При расчете учитывается влияние влажности воздуха и скорости ветра на теплоощущения человека.
Tes - Эффективная температура на солнце - температура, которую ощущает человек, с поправкой на солнечный нагрев. Характеристика знойности погоды. Зависит от высоты солнца над горизонтом, облачности и скорости ветра. Ночью, в пасмурную погоду, а также при ветре 12 м/с и более поправка равна нулю.
P - Атмосферное давление - приведенное к уровню моря атмосферное давление.
Po - Атмосферное давление - измеренное на уровне метеостанции атмосферное давление.
Tmin - Минимальная температура - минимум температуры воздуха на высоте 2 м над землей.
Tmax - Максимальная температура - максимум температуры воздуха на высоте 2 м над землей.
R - Количество осадков - Количество выпавших осадков за период времени, мм. При наведении курсора мыши на число - период времени, за который выпало указанное количество осадков.
R24 - Количество осадков - Количество выпавших осадков за 24 часа, мм.
S - Снежный покров - Высота снежного покрова, см. При наведении курсора мыши на число - состояние снежного покрова и степень покрытия местности в баллах.